Starlink 31744

operational
NORAD ID: 59494 Int'l Des: 2024-071 Owner: SPXS Country: US Constellation: starlink
LEOCIRCULAR

About Starlink 31744

Description loading...

Live Position

Loading 3D Globe...

Upcoming Passes

Altitude History

Altitude vs Time

uPlot chart will show altitude changes over time

Two-Line Element Set

1 59494U 24071L 25259.28202327 .00000565 00000-0 30057-4 0 9999
2 59494 42.9999 252.3652 0000844 264.0808 95.9947 15.27586716 81442
Epoch: Sep 16, 2025 • Age: 6 hours

Current Status

Altitude 482.5 km
Velocity 7.63 km/s
Sub-Earth Point 3.75°N, 63.11°E
Launch Date Apr 13, 2024
Age 1.4 years
Type internet

Technical Details

Classification Payload
Mass 730.00 kg
Dry Mass 700.00 kg
Total Mass 730.00 kg
Length 0.30 m
Diameter 4.10 m
Span 29.00 m
Shape Box + pan
Manufacturer SPXS
Bus Type Starlink V2M
Phase Status In Orbit
Owner/State SPXS/US

Large Constellations

Loading constellations...